This demonstration page uses our WeatherBlox Daily Observations layout. Learn more.

39.29038, -76.61219

Hourly Observations for February 7, 2020

Temp ( °F °C ) Dew Point ( °F °C ) Humidity (%) Winds ( mph kmh ) Pressure ( in mb ) Visibility ( mi km ) Precip ( " mm )
12:54 am 00:54 undefined 44 6.7 42 5.6 93 93 undefined N/A 29.33 993 N/A 0.11 2.794
1:54 am 01:54 undefined 45 7.2 43 6.1 93 93 undefined N/A 29.31 992 N/A 0.02 0.508
2:54 am 02:54 undefined 46 7.8 44 6.7 93 93 undefined N/A 29.23 990 N/A 0.02 0.508
3:54 am 03:54 undefined 48 8.9 47 8.3 96 96 undefined N/A 29.18 988 N/A 0 0
4:54 am 04:54 undefined 50 10 49 9.4 96 96 undefined N/A 29.12 986 N/A 0 0
5:54 am 05:54 undefined 55 12.8 54 12.2 96 96 undefined N/A 29.05 984 N/A 0.02 0.508
6:54 am 06:54 undefined 55 12.8 54 12.2 96 96 undefined N/A 29.01 983 N/A 0.03 0.762
7:54 am 07:54 undefined 56 13.3 54 12.2 93 93 undefined N/A 28.97 981 N/A 0.01 0.254
8:54 am 08:54 undefined 53 11.7 50 10 89 89 undefined N/A 28.99 982 N/A 0.29 7.366
9:54 am 09:54 undefined 49 9.4 43 6.1 80 80 undefined N/A 29.03 983 N/A 0.12 3.048
10:54 am 10:54 undefined 45 7.2 36 2.2 71 71 undefined N/A 29.12 986 N/A 0.02 0.508
11:54 am 11:54 undefined 46 7.8 33 0.6 61 61 undefined N/A 29.2 989 N/A 0 0
12:54 pm 12:54 undefined 47 8.3 31 -0.6 54 54 undefined N/A 29.27 991 N/A 0 0
1:54 pm 13:54 undefined 45 7.2 27 -2.8 49 49 undefined N/A 29.31 993 N/A 0 0
2:54 pm 14:54 undefined 45 7.2 24 -4.4 44 44 undefined N/A 29.37 995 N/A 0 0
3:54 pm 15:54 undefined 45 7.2 22 -5.6 40 40 undefined N/A 29.45 997 N/A 0 0
4:54 pm 16:54 undefined 43 6.1 22 -5.6 43 43 undefined N/A 29.5 999 N/A 0 0
5:54 pm 17:54 undefined 40 4.4 19 -7.2 43 43 undefined N/A 29.57 1001 N/A 0 0
6:54 pm 18:54 undefined 40 4.4 18 -7.8 41 41 undefined N/A 29.65 1004 N/A 0 0
7:54 pm 19:54 undefined 38 3.3 17 -8.3 43 43 undefined N/A 29.69 1005 N/A 0 0
8:54 pm 20:54 undefined 37 2.8 19 -7.2 48 48 undefined N/A 29.75 1007 N/A 0 0
9:54 pm 21:54 undefined 36 2.2 23 -5 59 59 undefined N/A 29.82 1010 N/A 0 0
10:54 pm 22:54 undefined 36 2.2 20 -6.7 52 52 undefined N/A 29.86 1011 N/A 0 0
11:54 pm 23:54 undefined 35 1.7 20 -6.7 54 54 undefined N/A 29.91 1013 N/A 0 0

Powered by AerisWeather